Location: Blue Pit
(43.1414°N, 93.2208°W)
Time: 18:25:53
(UTC+00:00)

Daily predictions for brighter satellites

Satellite Brightness Start Highest point End
(mag) Time Altitude Azimuth Time Altitude Azimuth Time Altitude Azimuth
Sich 1 Rocket 3.6 12:02:50 10° NNW 12:07:16 58° W 12:11:38 10° S
Cosmos 968 Rocket 4.2 12:02:43 10° NW 12:07:20 34° W 12:12:00 10° SSW
CENTAUR R/B 3.6 12:00:30 10° NW 12:08:48 53° WSW 12:17:53 10° S
Meteor 2-17 Rocket 4.5 12:04:07 10° SSW 12:10:03 56° WNW 12:16:04 10° N
SMAP 4.5 12:05:58 10° NNE 12:10:24 42° E 12:14:49 10° S
ATLAS 3B R/B 3.5 12:03:30 10° WSW 12:10:31 38° NW 12:17:47 10° NNE
Helios 1A Rocket 3.3 12:08:47 10° SSW 12:11:44 28° W 12:14:42 10° NW
Cosmos 1484 Rocket 2.4 12:09:28 10° N 12:12:58 66° WNW 12:16:26 10° SSW
NOSS 2-2 (C) 4.0 12:10:47 12° NW 12:14:34 56° SW 12:20:18 10° SSE
COSMO-SKYMED 1 2.9 12:11:05 10° SSW 12:14:56 38° W 12:18:48 10° NNW
IRS-1D 4.2 12:12:43 10° N 12:16:55 29° WNW 12:21:06 10° SW
Cosmos 2228 4.3 12:14:33 10° N 12:18:36 41° ENE 12:22:37 10° SSE
Cosmos 292 Rocket 3.7 12:14:34 10° NNW 12:19:21 74° WSW 12:24:06 10° SSE
CZ-3 R/B 3.4 12:12:10 10° WSW 12:21:54 26° SSW 12:26:31 10° SE
SL-8 R/B 4.3 12:17:46 10° SW 12:22:27 60° SSE 12:27:08 10° ENE
Gbstr 26 Del rocket 4.0 12:17:52 11° NW 12:23:02 68° NNE 12:29:36 10° ESE
IGS 5A 3.3 12:20:54 10° N 12:24:52 75° WNW 12:28:49 10° SSW
SL-16 R/B 3.7 12:24:37 10° W 12:28:07 16° NW 12:31:37 10° N
USA 234 3.4 12:26:07 10° SE 12:32:36 64° SW 12:39:07 10° NW
Cosmos 1302 Rocket 4.2 12:27:50 10° SW 12:32:48 46° WNW 12:37:47 10° N
Cosmos 1975 Rocket 3.1 12:28:54 10° S 12:33:10 86° E 12:37:29 10° N
Cosmos 1315 Rocket 2.9 12:32:57 10° N 12:36:48 75° ENE 12:40:38 10° SSE
Cosmos 1992 Rocket 4.0 12:32:10 10° SSW 12:37:22 77° WNW 12:42:37 10° NNE
Cosmos 1441 Rocket 3.5 12:35:03 10° SW 12:38:05 32° WNW 12:41:09 10° N
CORIOLIS 4.3 12:35:01 10° NNE 12:40:24 83° ESE 12:45:45 10° SSW
Tsikada Rocket 4.1 12:34:11 10° SSW 12:40:28 65° W 12:46:51 10° N
CBERS-1 4.1 23:08:31 10° SSE 23:13:37 89° WSW 23:18:46 10° NNW
SMAP 3.3 23:09:53 10° SE 23:14:21 48° ENE 23:18:50 10° N
YAOGAN 1 4.4 23:14:05 10° ENE 23:15:04 11° ENE 23:16:05 10° NE
Cosmos 44 Rocket 3.6 23:11:32 10° SSW 23:16:06 50° ESE 23:20:49 10° NE
BREEZE-M DEB (TANK) 2.4 23:15:57 10° SW 23:18:06 61° SE 23:22:35 10° ENE
Cosmos 1833 Rocket 3.1 23:12:42 10° NNW 23:18:20 71° WSW 23:23:55 10° SSE
USA 215 3.4 23:12:08 10° ESE 23:18:30 57° NNE 23:24:53 10° NW
RESURS DK-1 2.7 23:17:03 10° NNW 23:20:51 40° ENE 23:24:37 10° SE
Meteor 1-28 Rocket 3.5 23:18:06 10° N 23:21:27 61° WNW 23:24:46 10° SSW
SL-12 R/B(2) 4.3 23:15:38 10° SSW 23:23:21 75° ESE 23:32:45 10° NE
Cosmos 540 Rocket 3.7 23:19:55 10° N 23:24:52 46° ENE 23:29:45 10° SE
Landsat 7 4.0 23:21:59 10° SE 23:26:25 46° ENE 23:30:52 10° N
Cosmos 1400 Rocket 4.3 23:24:25 10° SE 23:26:49 16° E 23:29:14 10° NE
SJ-12 4.0 23:26:16 10° SE 23:29:52 44° ENE 23:33:30 10° N
Helios 1A Rocket 4.4 23:31:25 11° E 23:32:07 12° E 23:33:25 10° ESE
Cosmos 1763 Rocket 3.4 23:29:00 10° NNW 23:34:12 66° ENE 23:39:17 10° SSE
Tsikada Rocket 4.4 23:30:05 10° NNW 23:36:28 74° W 23:42:46 10° S
Cosmos 1140 Rocket 4.5 23:32:38 10° SW 23:37:37 48° WNW 23:42:37 10° N
UNK 3.9 23:35:08 10° N 23:39:45 79° WNW 23:44:20 10° SSW
Cosmos 1536 Rocket 4.5 23:37:43 10° NNE 23:41:30 27° ENE 23:45:14 10° SE
Cosmos 371 Rocket 4.3 23:38:28 10° SSE 23:42:26 27° E 23:46:07 12° NE
Okean 2 Rocket 4.0 23:41:02 10° SE 23:44:41 26° E 23:48:20 10° NNE
Timation 1 Rocket 4.3 23:46:51 10° NNW 23:52:51 82° ENE 23:58:49 10° SSE
COSMO-SKYMED 1 3.4 23:52:15 14° NE 23:54:53 26° E 23:58:21 10° SSE
Cosmos 1602 3.3 23:52:26 10° N 23:55:25 47° E 23:58:21 10° SSE
